Hourly Data Report for July 04, 2021

KUGLUKTUK A
NUNAVUT
Current Station Operator: NAVCAN

67°49'00.000" N
115°08'38.000" W
22.60 m
2300903
71938
YCO

Download Data

Hourly Data (July 2021)
Hourly Data Report for July 4, 2021
TIME
LST
Temp Definition
°C
Dew Point Definition
°C
Rel Hum Definition
%
Precip. Amount Definition
mm

Wind Dir Definition
10's deg

Wind Spd Definition
km/h
Visibility Definition
km
Stn Press Definition
kPa
Hmdx Definition


Wind Chill Definition


Weather Definition


00:00 3.2 0.5 83   7 6 24.1 102.06     LegendNANA
01:00 2.9 -0.2 80   4 11 24.1 102.04     LegendNANA
02:00 1.8 -0.7 83   5 9 24.1 102.02     Clear
03:00 1.3 -0.9 85   3 7 24.1 101.99     LegendNANA
04:00 2.0 -0.7 82   3 8 24.1 101.99     LegendNANA
05:00 2.8 -0.4 80   36 2 24.1 101.98     Clear
06:00 3.7 0.6 81   1 5 24.1 101.98     LegendNANA
07:00 4.7 1.1 77   2 8 24.1 101.96     LegendNANA
08:00 4.9 0.9 75   2 9 24.1 101.96     Mainly Clear
09:00 6.7 1.5 69   1 10 24.1 101.95     LegendNANA
10:00 6.9 2.4 73   2 10 24.1 101.94     LegendNANA
11:00 8.7 2.8 67   1 5 24.1 101.92     Mostly Cloudy
12:00 8.9 4.3 73   36 13 24.1 101.90     LegendNANA
13:00 7.7 3.6 75   36 10 24.1 101.91     LegendNANA
14:00 9.0 3.9 70   3 5 24.1 101.90     Mostly Cloudy
15:00 12.9 4.1 55   8 16 24.1 101.89     LegendNANA
16:00 13.9 4.1 51   8 19 24.1 101.87     LegendNANA
17:00 13.7 3.5 50   8 22 24.1 101.87     Mostly Cloudy
18:00 12.1 3.6 56   8 18 24.1 101.87     LegendNANA
19:00 12.2 3.1 54   9 17 24.1 101.87     LegendNANA
20:00 11.9 3.0 54   11 17 24.1 101.86     Mostly Cloudy
21:00 12.1 3.0 54   10 16 24.1 101.84     Rain
22:00 9.8 2.9 62   10 13 24.1 101.80     LegendNANA
23:00 8.6 4.3 74   28 3 24.1 101.81     Mostly Cloudy

Notes on Data Quality.

Legend

  • E = Estimated
  • M = Missing
  • NA = Not Available*
  • [empty] = Indicates an unobserved value
Date modified: